Year,Month,Day,Hour,Minute,Value (Times are PST for windgust in km/hr)
2018,12,19,00,00,24.20
2018,12,19,00,01,19.30
2018,12,19,00,02,16.10
2018,12,19,00,03,24.20
2018,12,19,00,04,19.30
2018,12,19,00,05,17.70
2018,12,19,00,06,20.90
2018,12,19,00,07,16.10
2018,12,19,00,08,19.30
2018,12,19,00,09,19.30
2018,12,19,00,10,9.60
2018,12,19,00,11,24.20
2018,12,19,00,12,14.50
2018,12,19,00,13,19.30
2018,12,19,00,14,16.10
2018,12,19,00,15,9.60
2018,12,19,00,16,14.50
2018,12,19,00,17,17.70
2018,12,19,00,18,12.90
2018,12,19,00,19,11.30
2018,12,19,00,20,19.30
2018,12,19,00,21,16.10
2018,12,19,00,22,19.30
2018,12,19,00,23,11.30
2018,12,19,00,24,17.70
2018,12,19,00,25,22.50
2018,12,19,00,26,27.40
2018,12,19,00,27,35.40
2018,12,19,00,28,27.40
2018,12,19,00,29,24.20
2018,12,19,00,30,24.20
2018,12,19,00,31,24.20
2018,12,19,00,32,27.40
2018,12,19,00,33,24.20
2018,12,19,00,34,22.50
2018,12,19,00,35,17.70
2018,12,19,00,36,17.70
2018,12,19,00,37,27.40
2018,12,19,00,38,17.70
2018,12,19,00,39,14.50
2018,12,19,00,40,25.70
2018,12,19,00,41,9.60
2018,12,19,00,42,11.30
2018,12,19,00,43,24.20
2018,12,19,00,44,24.20
2018,12,19,00,45,19.30
2018,12,19,00,46,27.40
2018,12,19,00,47,19.30
2018,12,19,00,48,24.20
2018,12,19,00,49,17.70
2018,12,19,00,50,25.70
2018,12,19,00,51,20.90
2018,12,19,00,52,25.70
2018,12,19,00,53,30.60
2018,12,19,00,54,27.40
2018,12,19,00,55,27.40
2018,12,19,00,56,27.40
2018,12,19,00,57,25.70
2018,12,19,00,58,25.70
2018,12,19,00,59,16.10
2018,12,19,01,00,32.20
2018,12,19,01,01,27.40
2018,12,19,01,02,22.50
2018,12,19,01,03,22.50
2018,12,19,01,04,25.70
2018,12,19,01,05,30.60
2018,12,19,01,06,27.40
2018,12,19,01,07,22.50
2018,12,19,01,08,17.70
2018,12,19,01,09,19.30
2018,12,19,01,10,22.50
2018,12,19,01,11,25.70
2018,12,19,01,12,29.00
2018,12,19,01,13,29.00
2018,12,19,01,14,27.40
2018,12,19,01,15,20.90
2018,12,19,01,16,22.50
2018,12,19,01,17,27.40
2018,12,19,01,18,17.70
2018,12,19,01,19,22.50
2018,12,19,01,20,19.30
2018,12,19,01,21,22.50
2018,12,19,01,22,32.20
2018,12,19,01,23,17.70
2018,12,19,01,24,27.40
2018,12,19,01,25,27.40
2018,12,19,01,26,20.90
2018,12,19,01,27,19.30
2018,12,19,01,28,20.90
2018,12,19,01,29,22.50
2018,12,19,01,30,20.90
2018,12,19,01,31,17.70
2018,12,19,01,32,24.20
2018,12,19,01,33,24.20
2018,12,19,01,34,20.90
2018,12,19,01,35,25.70
2018,12,19,01,36,25.70
2018,12,19,01,37,20.90
2018,12,19,01,38,19.30
2018,12,19,01,39,14.50
2018,12,19,01,40,9.60
2018,12,19,01,41,27.40
2018,12,19,01,42,16.10
2018,12,19,01,43,20.90
2018,12,19,01,44,16.10
2018,12,19,01,45,9.60
2018,12,19,01,46,12.90
2018,12,19,01,47,16.10
2018,12,19,01,48,19.30
2018,12,19,01,49,22.50
2018,12,19,01,50,20.90
2018,12,19,01,51,19.30
2018,12,19,01,52,8.10
2018,12,19,01,53,16.10
2018,12,19,01,54,20.90
2018,12,19,01,55,20.90
2018,12,19,01,56,16.10
2018,12,19,01,57,17.70
2018,12,19,01,58,11.30
2018,12,19,01,59,9.60
2018,12,19,02,00,8.10
2018,12,19,02,01,9.60
2018,12,19,02,02,8.10
2018,12,19,02,03,17.70
2018,12,19,02,04,8.10
2018,12,19,02,05,11.30
2018,12,19,02,06,8.10
2018,12,19,02,07,6.40
2018,12,19,02,08,8.10
2018,12,19,02,09,11.30
2018,12,19,02,10,4.80
2018,12,19,02,11,4.80
2018,12,19,02,12,4.80
2018,12,19,02,13,3.20
2018,12,19,02,14,6.40
2018,12,19,02,15,8.10
2018,12,19,02,16,6.40
2018,12,19,02,17,4.80
2018,12,19,02,18,8.10
2018,12,19,02,19,11.30
2018,12,19,02,20,8.10
2018,12,19,02,21,14.50
2018,12,19,02,22,6.40
2018,12,19,02,23,8.10
2018,12,19,02,24,16.10
2018,12,19,02,25,11.30
2018,12,19,02,26,6.40
2018,12,19,02,27,3.20
2018,12,19,02,28,6.40
2018,12,19,02,29,11.30
2018,12,19,02,30,9.60
2018,12,19,02,31,9.60
2018,12,19,02,32,6.40
2018,12,19,02,33,14.50
2018,12,19,02,34,9.60
2018,12,19,02,35,4.80
2018,12,19,02,36,8.10
2018,12,19,02,37,6.40
2018,12,19,02,38,8.10
2018,12,19,02,39,8.10
2018,12,19,02,40,9.60
2018,12,19,02,41,8.10
2018,12,19,02,42,4.80
2018,12,19,02,43,9.60
2018,12,19,02,44,8.10
2018,12,19,02,45,4.80
2018,12,19,02,46,16.10
2018,12,19,02,47,12.90
2018,12,19,02,48,8.10
2018,12,19,02,49,11.30
2018,12,19,02,50,14.50
2018,12,19,02,51,6.40
2018,12,19,02,52,12.90
2018,12,19,02,53,9.60
2018,12,19,02,54,6.40
2018,12,19,02,55,9.60
2018,12,19,02,56,12.90
2018,12,19,02,57,14.50
2018,12,19,02,58,8.10
2018,12,19,02,59,14.50
2018,12,19,03,00,4.80
2018,12,19,03,01,8.10
2018,12,19,03,02,8.10
2018,12,19,03,03,8.10
2018,12,19,03,04,9.60
2018,12,19,03,05,9.60
2018,12,19,03,06,20.90
2018,12,19,03,07,8.10
2018,12,19,03,08,17.70
2018,12,19,03,09,14.50
2018,12,19,03,10,12.90
2018,12,19,03,11,9.60
2018,12,19,03,12,11.30
2018,12,19,03,13,9.60
2018,12,19,03,14,14.50
2018,12,19,03,15,8.10
2018,12,19,03,16,8.10
2018,12,19,03,17,11.30
2018,12,19,03,18,16.10
2018,12,19,03,19,11.30
2018,12,19,03,20,8.10
2018,12,19,03,21,19.30
2018,12,19,03,22,24.20
2018,12,19,03,23,17.70
2018,12,19,03,24,14.50
2018,12,19,03,25,14.50
2018,12,19,03,26,14.50
2018,12,19,03,27,11.30
2018,12,19,03,28,11.30
2018,12,19,03,29,17.70
2018,12,19,03,30,16.10
2018,12,19,03,31,9.60
2018,12,19,03,32,14.50
2018,12,19,03,33,14.50
2018,12,19,03,34,12.90
2018,12,19,03,35,14.50
2018,12,19,03,36,22.50
2018,12,19,03,37,16.10
2018,12,19,03,38,11.30
2018,12,19,03,39,14.50
2018,12,19,03,40,9.60
2018,12,19,03,41,17.70
2018,12,19,03,42,9.60
2018,12,19,03,43,8.10
2018,12,19,03,44,16.10
2018,12,19,03,45,24.20
2018,12,19,03,46,17.70
2018,12,19,03,47,8.10
2018,12,19,03,48,16.10
2018,12,19,03,49,6.40
2018,12,19,03,50,9.60
2018,12,19,03,51,6.40
2018,12,19,03,52,8.10
2018,12,19,03,53,9.60
2018,12,19,03,54,9.60
2018,12,19,03,55,9.60
2018,12,19,03,56,9.60
2018,12,19,03,57,16.10
2018,12,19,03,58,14.50
2018,12,19,03,59,9.60
2018,12,19,04,00,8.10
2018,12,19,04,01,8.10
2018,12,19,04,02,9.60
2018,12,19,04,03,8.10
2018,12,19,05,04,4.80
2018,12,19,05,05,3.20
2018,12,19,05,06,1.60
2018,12,19,05,07,1.60
2018,12,19,05,08,3.20
2018,12,19,05,09,3.20
2018,12,19,05,10,6.40
2018,12,19,05,11,4.80
2018,12,19,05,12,8.10
2018,12,19,05,13,14.50
2018,12,19,05,14,9.60
2018,12,19,05,15,8.10
2018,12,19,05,16,16.10
2018,12,19,05,17,14.50
2018,12,19,05,18,16.10
2018,12,19,05,19,14.50
2018,12,19,05,20,8.10
2018,12,19,05,21,9.60
2018,12,19,05,22,4.80
2018,12,19,05,23,8.10
2018,12,19,05,24,6.40
2018,12,19,05,25,8.10
2018,12,19,05,26,8.10
2018,12,19,05,27,11.30
2018,12,19,05,28,22.50
2018,12,19,05,29,22.50
2018,12,19,05,30,11.30
2018,12,19,05,31,9.60
2018,12,19,05,32,6.40
2018,12,19,05,33,6.40
2018,12,19,05,34,9.60
2018,12,19,05,35,6.40
2018,12,19,05,36,4.80
2018,12,19,05,37,4.80
2018,12,19,05,38,3.20
2018,12,19,05,39,3.20
2018,12,19,05,40,4.80
2018,12,19,05,41,6.40
2018,12,19,05,42,8.10
2018,12,19,05,43,8.10
2018,12,19,05,44,3.20
2018,12,19,05,45,9.60
2018,12,19,05,46,4.80
2018,12,19,05,47,4.80
2018,12,19,05,48,3.20
2018,12,19,05,50,6.40
2018,12,19,05,51,8.10
2018,12,19,05,52,9.60
2018,12,19,05,53,3.20
2018,12,19,05,54,6.40
2018,12,19,05,55,9.60
2018,12,19,05,56,8.10
2018,12,19,05,57,9.60
2018,12,19,05,58,8.10
2018,12,19,05,59,4.80
2018,12,19,06,00,8.10
2018,12,19,06,01,8.10
2018,12,19,06,02,6.40
2018,12,19,06,03,4.80
2018,12,19,06,04,4.80
2018,12,19,06,05,6.40
2018,12,19,06,06,4.80
2018,12,19,06,07,6.40
2018,12,19,06,08,6.40
2018,12,19,06,09,3.20
2018,12,19,06,10,4.80
2018,12,19,06,11,3.20
2018,12,19,06,12,4.80
2018,12,19,06,13,6.40
2018,12,19,06,14,4.80
2018,12,19,06,15,8.10
2018,12,19,06,16,6.40
2018,12,19,06,17,8.10
2018,12,19,06,18,4.80
2018,12,19,06,19,9.60
2018,12,19,06,20,8.10
2018,12,19,06,21,4.80
2018,12,19,06,22,6.40
2018,12,19,06,23,8.10
2018,12,19,06,24,11.30
2018,12,19,06,25,11.30
2018,12,19,06,26,9.60
2018,12,19,06,27,6.40
2018,12,19,06,28,9.60
2018,12,19,06,29,9.60
2018,12,19,06,30,11.30
2018,12,19,06,31,11.30
2018,12,19,06,32,8.10
2018,12,19,06,33,8.10
2018,12,19,06,34,16.10
2018,12,19,06,35,11.30
2018,12,19,06,36,8.10
2018,12,19,06,37,8.10
2018,12,19,06,38,6.40
2018,12,19,06,39,9.60
2018,12,19,06,40,6.40
2018,12,19,06,41,9.60
2018,12,19,06,42,8.10
2018,12,19,06,43,9.60
2018,12,19,06,44,6.40
2018,12,19,06,45,6.40
2018,12,19,06,46,11.30
2018,12,19,06,47,9.60
2018,12,19,06,48,8.10
2018,12,19,06,49,1.60
2018,12,19,06,50,4.80
2018,12,19,06,51,9.60
2018,12,19,06,52,8.10
2018,12,19,06,53,6.40
2018,12,19,06,54,6.40
2018,12,19,06,55,4.80
2018,12,19,06,56,6.40
2018,12,19,06,57,9.60
2018,12,19,06,58,9.60
2018,12,19,06,59,6.40
2018,12,19,07,00,6.40
2018,12,19,07,01,4.80
2018,12,19,07,02,4.80
2018,12,19,07,03,6.40
2018,12,19,07,04,6.40
2018,12,19,07,05,4.80
2018,12,19,07,06,6.40
2018,12,19,07,07,8.10
2018,12,19,07,08,6.40
2018,12,19,07,09,3.20
2018,12,19,07,10,1.60
2018,12,19,07,11,1.60
2018,12,19,07,14,1.60
2018,12,19,07,16,4.80
2018,12,19,07,17,6.40
2018,12,19,07,18,4.80
2018,12,19,07,19,1.60
2018,12,19,07,20,6.40
2018,12,19,07,21,3.20
2018,12,19,07,22,6.40
2018,12,19,07,23,1.60
2018,12,19,07,24,3.20
2018,12,19,07,25,3.20
2018,12,19,07,26,6.40
2018,12,19,07,27,3.20
2018,12,19,07,43,1.60
2018,12,19,07,51,1.60
2018,12,19,07,52,4.80
2018,12,19,07,53,4.80
2018,12,19,07,54,3.20
2018,12,19,07,55,3.20
2018,12,19,07,56,3.20
2018,12,19,07,57,4.80
2018,12,19,07,58,6.40
2018,12,19,07,59,4.80
2018,12,19,08,00,4.80
2018,12,19,08,01,6.40
2018,12,19,08,02,8.10
2018,12,19,08,03,6.40
2018,12,19,08,04,6.40
2018,12,19,08,05,6.40
2018,12,19,08,06,6.40
2018,12,19,08,07,4.80
2018,12,19,08,08,4.80
2018,12,19,08,09,3.20
2018,12,19,08,10,4.80
2018,12,19,08,11,6.40
2018,12,19,08,12,3.20
2018,12,19,08,13,3.20
2018,12,19,08,14,4.80
2018,12,19,08,15,4.80
2018,12,19,08,16,6.40
2018,12,19,08,17,4.80
2018,12,19,08,18,6.40
2018,12,19,08,19,6.40
2018,12,19,08,20,3.20
2018,12,19,08,21,3.20
2018,12,19,08,22,1.60
2018,12,19,08,23,3.20
2018,12,19,08,24,3.20
2018,12,19,08,25,4.80
2018,12,19,08,26,6.40
2018,12,19,08,27,6.40
2018,12,19,08,28,6.40
2018,12,19,08,29,4.80
2018,12,19,08,30,4.80
2018,12,19,08,31,6.40
2018,12,19,08,32,6.40
2018,12,19,08,33,6.40
2018,12,19,08,34,4.80
2018,12,19,08,35,6.40
2018,12,19,08,36,8.10
2018,12,19,08,37,9.60
2018,12,19,08,38,8.10
2018,12,19,08,39,8.10
2018,12,19,08,40,6.40
2018,12,19,08,41,6.40
2018,12,19,08,42,8.10
2018,12,19,08,43,9.60
2018,12,19,08,44,6.40
2018,12,19,08,45,8.10
2018,12,19,08,46,4.80
2018,12,19,08,47,6.40
2018,12,19,08,48,4.80
2018,12,19,08,49,1.60
2018,12,19,08,50,4.80
2018,12,19,08,51,6.40
2018,12,19,08,52,6.40
2018,12,19,08,53,4.80
2018,12,19,08,54,4.80
2018,12,19,08,55,4.80
2018,12,19,08,56,6.40
2018,12,19,08,57,6.40
2018,12,19,08,58,6.40
2018,12,19,08,59,4.80
2018,12,19,09,00,6.40
2018,12,19,09,01,8.10
2018,12,19,09,02,4.80
2018,12,19,09,03,4.80
2018,12,19,09,04,6.40
2018,12,19,09,05,8.10
2018,12,19,09,06,6.40
2018,12,19,09,07,8.10
2018,12,19,09,08,6.40
2018,12,19,09,09,3.20
2018,12,19,09,10,4.80
2018,12,19,09,11,4.80
2018,12,19,09,12,4.80
2018,12,19,09,13,4.80
2018,12,19,09,14,4.80
2018,12,19,09,15,6.40
2018,12,19,09,16,6.40
2018,12,19,09,17,4.80
2018,12,19,09,18,6.40
2018,12,19,09,19,4.80
2018,12,19,09,20,6.40
2018,12,19,09,21,3.20
2018,12,19,09,22,3.20
2018,12,19,09,23,3.20
2018,12,19,09,24,3.20
2018,12,19,09,25,3.20
2018,12,19,09,26,4.80
2018,12,19,09,27,4.80
2018,12,19,09,28,4.80
2018,12,19,09,29,4.80
2018,12,19,09,30,4.80
2018,12,19,09,31,3.20
2018,12,19,09,32,3.20
2018,12,19,09,33,3.20
2018,12,19,09,34,3.20
2018,12,19,09,35,3.20
2018,12,19,09,36,4.80
2018,12,19,09,37,3.20
2018,12,19,09,38,3.20
2018,12,19,09,39,1.60
2018,12,19,09,45,1.60
2018,12,19,09,46,3.20
2018,12,19,09,47,3.20
2018,12,19,09,48,4.80
2018,12,19,09,49,6.40
2018,12,19,09,50,6.40
2018,12,19,09,51,4.80
2018,12,19,09,52,4.80
2018,12,19,09,53,4.80
2018,12,19,09,54,4.80
2018,12,19,09,55,3.20
2018,12,19,09,56,4.80
2018,12,19,09,57,6.40
2018,12,19,09,58,6.40
2018,12,19,09,59,6.40
2018,12,19,10,00,9.60
2018,12,19,10,01,9.60
2018,12,19,10,02,9.60
2018,12,19,10,03,8.10
2018,12,19,10,04,6.40
2018,12,19,10,05,4.80
2018,12,19,10,06,4.80
2018,12,19,10,07,4.80
2018,12,19,10,08,4.80
2018,12,19,10,10,4.80
2018,12,19,10,11,8.10
2018,12,19,10,12,8.10
2018,12,19,10,13,8.10
2018,12,19,10,14,8.10
2018,12,19,10,15,4.80
2018,12,19,10,16,3.20
2018,12,19,10,17,3.20
2018,12,19,10,18,4.80
2018,12,19,10,19,4.80
2018,12,19,10,20,4.80
2018,12,19,10,21,4.80
2018,12,19,10,22,3.20
2018,12,19,10,23,3.20
2018,12,19,10,24,4.80
2018,12,19,10,25,8.10
2018,12,19,10,26,6.40
2018,12,19,10,27,4.80
2018,12,19,10,28,4.80
2018,12,19,10,29,4.80
2018,12,19,10,30,4.80
2018,12,19,10,31,4.80
2018,12,19,10,32,4.80
2018,12,19,10,33,3.20
2018,12,19,10,34,4.80
2018,12,19,10,35,4.80
2018,12,19,10,36,4.80
2018,12,19,10,39,3.20
2018,12,19,10,40,4.80
2018,12,19,10,41,3.20
2018,12,19,10,42,1.60
2018,12,19,10,43,3.20
2018,12,19,10,44,1.60
2018,12,19,10,45,4.80
2018,12,19,10,46,4.80
2018,12,19,10,47,3.20
2018,12,19,10,48,3.20
2018,12,19,10,49,4.80
2018,12,19,10,50,4.80
2018,12,19,10,51,4.80
2018,12,19,10,52,4.80
2018,12,19,10,53,4.80
2018,12,19,10,54,3.20
2018,12,19,10,55,3.20
2018,12,19,10,56,6.40
2018,12,19,10,57,6.40
2018,12,19,10,58,6.40
2018,12,19,10,59,1.60
2018,12,19,11,00,6.40
2018,12,19,11,01,6.40
2018,12,19,11,02,8.10
2018,12,19,11,03,6.40
2018,12,19,11,04,8.10
2018,12,19,11,05,8.10
2018,12,19,11,06,9.60
2018,12,19,11,07,6.40
2018,12,19,11,08,6.40
2018,12,19,11,09,4.80
2018,12,19,11,10,4.80
2018,12,19,11,11,9.60
2018,12,19,11,12,8.10
2018,12,19,11,13,4.80
2018,12,19,11,14,6.40
2018,12,19,11,15,8.10
2018,12,19,11,16,3.20
2018,12,19,11,17,4.80
2018,12,19,11,18,4.80
2018,12,19,11,19,6.40
2018,12,19,11,20,4.80
2018,12,19,11,21,3.20
2018,12,19,11,24,1.60
2018,12,19,11,25,3.20
2018,12,19,11,26,3.20
2018,12,19,11,27,1.60
2018,12,19,11,28,1.60
2018,12,19,11,29,4.80
2018,12,19,11,30,3.20
2018,12,19,11,31,1.60
2018,12,19,11,32,1.60
2018,12,19,11,35,3.20
2018,12,19,11,36,3.20
2018,12,19,11,40,3.20
2018,12,19,11,41,4.80
2018,12,19,11,42,6.40
2018,12,19,11,43,6.40
2018,12,19,11,44,6.40
2018,12,19,11,45,1.60
2018,12,19,11,54,3.20
2018,12,19,11,55,1.60
2018,12,19,11,56,3.20
2018,12,19,11,57,4.80
2018,12,19,11,58,3.20
2018,12,19,11,59,3.20
2018,12,19,12,00,3.20
2018,12,19,12,01,3.20
2018,12,19,12,02,4.80
2018,12,19,12,03,3.20
2018,12,19,12,05,4.80
2018,12,19,12,06,4.80
2018,12,19,12,07,6.40
2018,12,19,12,08,6.40
2018,12,19,12,09,4.80
2018,12,19,12,10,4.80
2018,12,19,12,11,3.20
2018,12,19,12,12,11.30
2018,12,19,12,13,9.60
2018,12,19,12,14,6.40
2018,12,19,12,15,8.10
2018,12,19,12,16,1.60
2018,12,19,12,17,4.80
2018,12,19,12,18,6.40
2018,12,19,12,19,9.60
2018,12,19,12,20,9.60
2018,12,19,12,21,4.80
2018,12,19,12,22,8.10
2018,12,19,12,23,4.80
2018,12,19,12,24,9.60
2018,12,19,12,25,8.10
2018,12,19,12,26,9.60
2018,12,19,12,27,8.10
2018,12,19,12,28,6.40
2018,12,19,12,29,4.80
2018,12,19,12,30,4.80
2018,12,19,12,31,6.40
2018,12,19,12,32,8.10
2018,12,19,12,33,11.30
2018,12,19,12,34,6.40
2018,12,19,12,35,4.80
2018,12,19,12,36,6.40
2018,12,19,12,37,4.80
2018,12,19,12,38,6.40
2018,12,19,12,39,3.20
2018,12,19,12,40,3.20
2018,12,19,12,41,1.60
2018,12,19,12,42,1.60
2018,12,19,12,43,3.20
2018,12,19,12,44,3.20
2018,12,19,12,45,3.20
2018,12,19,12,46,4.80
2018,12,19,12,47,6.40
2018,12,19,12,48,3.20
2018,12,19,12,49,6.40
2018,12,19,12,50,4.80
2018,12,19,12,51,4.80
2018,12,19,12,52,3.20
2018,12,19,12,53,1.60
2018,12,19,12,54,4.80
2018,12,19,12,55,4.80
2018,12,19,12,56,4.80
2018,12,19,12,57,6.40
2018,12,19,12,58,3.20
2018,12,19,12,59,1.60
2018,12,19,13,02,1.60
2018,12,19,13,05,3.20
2018,12,19,13,06,3.20
2018,12,19,13,07,1.60
2018,12,19,13,08,4.80
2018,12,19,13,09,3.20
2018,12,19,13,10,4.80
2018,12,19,13,11,9.60
2018,12,19,13,12,6.40
2018,12,19,13,13,3.20
2018,12,19,13,14,8.10
2018,12,19,13,15,6.40
2018,12,19,13,16,3.20
2018,12,19,13,17,6.40
2018,12,19,13,18,3.20
2018,12,19,13,19,1.60
2018,12,19,13,21,1.60
2018,12,19,13,22,1.60
2018,12,19,13,27,1.60
2018,12,19,13,28,4.80
2018,12,19,13,29,1.60
2018,12,19,13,30,1.60
2018,12,19,13,31,3.20
2018,12,19,13,32,3.20
2018,12,19,13,34,1.60
2018,12,19,13,36,1.60
2018,12,19,13,37,3.20
2018,12,19,13,38,3.20
2018,12,19,13,39,3.20
2018,12,19,13,40,3.20
2018,12,19,13,43,1.60
2018,12,19,13,50,3.20
2018,12,19,13,51,3.20
2018,12,19,14,03,1.60
2018,12,19,14,04,4.80
2018,12,19,14,05,3.20
2018,12,19,14,06,1.60
2018,12,19,14,07,3.20
2018,12,19,14,08,3.20
2018,12,19,14,09,1.60
2018,12,19,14,10,1.60
2018,12,19,14,11,3.20
2018,12,19,14,12,1.60
2018,12,19,14,15,1.60
2018,12,19,14,16,3.20
2018,12,19,14,17,3.20
2018,12,19,14,18,3.20
2018,12,19,14,19,1.60
2018,12,19,14,20,1.60
2018,12,19,14,21,3.20
2018,12,19,14,22,4.80
2018,12,19,14,23,1.60
2018,12,19,14,28,3.20
2018,12,19,14,29,3.20
2018,12,19,14,36,3.20
2018,12,19,14,37,3.20
2018,12,19,14,38,3.20
2018,12,19,14,39,1.60
2018,12,19,14,44,3.20
2018,12,19,14,45,3.20
2018,12,19,14,47,1.60
2018,12,19,14,48,3.20
2018,12,19,14,51,3.20
2018,12,19,14,59,1.60
2018,12,19,15,02,1.60
2018,12,19,15,03,1.60
2018,12,19,15,04,3.20
2018,12,19,15,05,3.20
2018,12,19,15,06,1.60
2018,12,19,15,07,1.60
2018,12,19,15,08,1.60
2018,12,19,15,14,6.40
2018,12,19,15,15,4.80
2018,12,19,15,22,3.20
2018,12,19,15,23,3.20
2018,12,19,15,26,3.20
2018,12,19,15,27,3.20
2018,12,19,15,28,1.60
2018,12,19,15,29,4.80
2018,12,19,15,31,1.60
2018,12,19,15,32,3.20
2018,12,19,15,33,4.80
2018,12,19,15,34,1.60
2018,12,19,15,35,1.60
2018,12,19,15,36,1.60
2018,12,19,15,37,1.60
2018,12,19,15,46,3.20
2018,12,19,15,47,3.20
2018,12,19,15,53,1.60
2018,12,19,16,23,1.60
2018,12,19,16,24,4.80
2018,12,19,16,25,3.20
2018,12,19,16,27,4.80
2018,12,19,16,28,4.80
2018,12,19,16,29,4.80
2018,12,19,16,30,4.80
2018,12,19,16,31,4.80
2018,12,19,16,32,3.20
2018,12,19,16,33,1.60
2018,12,19,16,35,4.80
2018,12,19,16,36,3.20
2018,12,19,16,37,3.20
2018,12,19,16,38,4.80
2018,12,19,16,39,4.80
2018,12,19,16,40,4.80
2018,12,19,16,41,1.60
2018,12,19,16,43,4.80
2018,12,19,16,44,4.80
2018,12,19,16,45,3.20
2018,12,19,16,46,4.80
2018,12,19,16,47,4.80
2018,12,19,16,48,6.40
2018,12,19,16,49,4.80
2018,12,19,16,50,4.80
2018,12,19,16,51,4.80
2018,12,19,16,52,8.10
2018,12,19,16,53,6.40
2018,12,19,16,54,4.80
2018,12,19,16,55,3.20
2018,12,19,16,56,6.40
2018,12,19,16,57,8.10
2018,12,19,16,58,9.60
2018,12,19,16,59,3.20
2018,12,19,17,00,3.20
2018,12,19,17,01,4.80
2018,12,19,17,02,8.10
2018,12,19,17,03,9.60
2018,12,19,17,04,8.10
2018,12,19,17,05,4.80
2018,12,19,17,06,6.40
2018,12,19,17,07,8.10
2018,12,19,17,08,9.60
2018,12,19,17,09,8.10
2018,12,19,17,10,8.10
2018,12,19,17,11,1.60
2018,12,19,17,12,6.40
2018,12,19,17,13,6.40
2018,12,19,17,14,4.80
2018,12,19,17,15,3.20
2018,12,19,17,16,3.20
2018,12,19,17,17,3.20
2018,12,19,17,18,3.20
2018,12,19,17,19,6.40
2018,12,19,17,20,6.40
2018,12,19,17,21,3.20
2018,12,19,17,22,4.80
2018,12,19,17,23,3.20
2018,12,19,17,24,4.80
2018,12,19,17,25,4.80
2018,12,19,17,26,8.10
2018,12,19,17,27,8.10
2018,12,19,17,28,9.60
2018,12,19,17,29,6.40
2018,12,19,17,30,8.10
2018,12,19,17,31,11.30
2018,12,19,17,32,6.40
2018,12,19,17,33,6.40
2018,12,19,17,34,8.10
2018,12,19,17,35,4.80
2018,12,19,17,36,6.40
2018,12,19,17,38,3.20
2018,12,19,17,39,6.40
2018,12,19,17,40,6.40
2018,12,19,17,41,4.80
2018,12,19,17,42,6.40
2018,12,19,17,43,6.40
2018,12,19,17,44,8.10
2018,12,19,17,45,11.30
2018,12,19,17,46,9.60
2018,12,19,17,47,8.10
2018,12,19,17,48,11.30
2018,12,19,17,49,6.40
2018,12,19,17,50,8.10
2018,12,19,17,51,4.80
2018,12,19,17,52,9.60
2018,12,19,17,53,3.20
2018,12,19,17,55,6.40
2018,12,19,17,56,11.30
2018,12,19,17,57,6.40
2018,12,19,17,58,6.40
2018,12,19,17,59,4.80
2018,12,19,18,00,6.40
2018,12,19,18,01,6.40
2018,12,19,18,02,6.40
2018,12,19,18,03,8.10
2018,12,19,18,04,8.10
2018,12,19,18,05,11.30
2018,12,19,18,06,9.60
2018,12,19,18,07,3.20
2018,12,19,18,08,1.60
2018,12,19,18,09,9.60
2018,12,19,18,10,11.30
2018,12,19,18,11,3.20
2018,12,19,18,12,6.40
2018,12,19,18,13,9.60
2018,12,19,18,14,3.20
2018,12,19,18,15,6.40
2018,12,19,18,16,6.40
2018,12,19,18,17,9.60
2018,12,19,18,18,4.80
2018,12,19,18,19,8.10
2018,12,19,18,20,8.10
2018,12,19,18,21,4.80
2018,12,19,18,22,1.60
2018,12,19,18,23,8.10
2018,12,19,18,24,6.40
2018,12,19,18,25,6.40
2018,12,19,18,26,3.20
2018,12,19,18,27,3.20
2018,12,19,18,28,6.40
2018,12,19,18,29,9.60
2018,12,19,18,30,6.40
2018,12,19,18,31,9.60
2018,12,19,18,32,6.40
2018,12,19,18,33,4.80
2018,12,19,18,34,4.80
2018,12,19,18,35,6.40
2018,12,19,18,36,11.30
2018,12,19,18,37,4.80
2018,12,19,18,38,11.30
2018,12,19,18,39,11.30
2018,12,19,18,40,9.60
2018,12,19,18,41,11.30
2018,12,19,18,42,14.50
2018,12,19,18,43,8.10
2018,12,19,18,44,8.10
2018,12,19,18,45,11.30
2018,12,19,18,46,9.60
2018,12,19,18,47,11.30
2018,12,19,18,48,11.30
2018,12,19,18,49,6.40
2018,12,19,18,50,8.10
2018,12,19,18,51,9.60
2018,12,19,18,52,3.20
2018,12,19,18,53,6.40
2018,12,19,18,54,3.20
2018,12,19,18,56,6.40
2018,12,19,18,57,8.10
2018,12,19,18,58,6.40
2018,12,19,18,59,6.40
2018,12,19,19,00,6.40
2018,12,19,19,01,1.60
2018,12,19,19,02,8.10
2018,12,19,19,03,8.10
2018,12,19,19,04,9.60
2018,12,19,19,05,9.60
2018,12,19,19,06,6.40
2018,12,19,19,07,9.60
2018,12,19,19,08,3.20
2018,12,19,19,09,8.10
2018,12,19,19,10,6.40
2018,12,19,19,11,4.80
2018,12,19,19,12,11.30
2018,12,19,19,13,8.10
2018,12,19,19,14,8.10
2018,12,19,19,15,8.10
2018,12,19,19,16,8.10
2018,12,19,19,17,9.60
2018,12,19,19,18,8.10
2018,12,19,19,19,6.40
2018,12,19,19,20,3.20
2018,12,19,19,21,11.30
2018,12,19,19,22,6.40
2018,12,19,19,23,6.40
2018,12,19,19,24,9.60
2018,12,19,19,25,6.40
2018,12,19,19,26,6.40
2018,12,19,19,27,9.60
2018,12,19,19,28,8.10
2018,12,19,19,29,19.30
2018,12,19,19,30,19.30
2018,12,19,19,31,9.60
2018,12,19,19,32,4.80
2018,12,19,19,33,8.10
2018,12,19,19,34,8.10
2018,12,19,19,35,6.40
2018,12,19,19,36,6.40
2018,12,19,19,37,11.30
2018,12,19,19,38,11.30
2018,12,19,19,39,17.70
2018,12,19,19,40,8.10
2018,12,19,19,41,6.40
2018,12,19,19,42,14.50
2018,12,19,19,43,11.30
2018,12,19,19,44,6.40
2018,12,19,19,45,9.60
2018,12,19,19,46,14.50
2018,12,19,19,47,14.50
2018,12,19,19,48,6.40
2018,12,19,19,49,4.80
2018,12,19,19,50,4.80
2018,12,19,19,51,4.80
2018,12,19,19,52,8.10
2018,12,19,19,53,8.10
2018,12,19,19,54,6.40
2018,12,19,19,55,14.50
2018,12,19,19,56,4.80
2018,12,19,19,57,9.60
2018,12,19,19,58,8.10
2018,12,19,19,59,3.20
2018,12,19,20,00,9.60
2018,12,19,20,01,11.30
2018,12,19,20,02,9.60
2018,12,19,20,03,9.60
2018,12,19,20,04,9.60
2018,12,19,20,05,16.10
2018,12,19,20,06,9.60
2018,12,19,20,07,9.60
2018,12,19,20,08,14.50
2018,12,19,20,09,12.90
2018,12,19,20,10,17.70
2018,12,19,20,11,11.30
2018,12,19,20,12,9.60
2018,12,19,20,13,9.60
2018,12,19,20,14,17.70
2018,12,19,20,15,8.10
2018,12,19,20,16,22.50
2018,12,19,20,17,9.60
2018,12,19,20,18,14.50
2018,12,19,20,19,4.80
2018,12,19,20,20,16.10
2018,12,19,20,21,14.50
2018,12,19,20,22,6.40
2018,12,19,20,23,11.30
2018,12,19,20,24,9.60
2018,12,19,20,25,4.80
2018,12,19,20,26,16.10
2018,12,19,20,27,12.90
2018,12,19,20,28,11.30
2018,12,19,20,29,6.40
2018,12,19,20,30,6.40
2018,12,19,20,31,9.60
2018,12,19,20,32,14.50
2018,12,19,20,33,9.60
2018,12,19,20,34,8.10
2018,12,19,20,35,6.40
2018,12,19,20,36,8.10
2018,12,19,20,37,3.20
2018,12,19,20,38,9.60
2018,12,19,20,39,11.30
2018,12,19,20,40,4.80
2018,12,19,20,41,9.60
2018,12,19,20,42,9.60
2018,12,19,20,43,9.60
2018,12,19,20,44,17.70
2018,12,19,20,45,16.10
2018,12,19,20,46,4.80
2018,12,19,20,47,4.80
2018,12,19,20,48,11.30
2018,12,19,20,49,8.10
2018,12,19,20,50,6.40
2018,12,19,20,51,11.30
2018,12,19,20,52,9.60
2018,12,19,20,53,6.40
2018,12,19,20,54,16.10
2018,12,19,20,55,19.30
2018,12,19,20,56,9.60
2018,12,19,20,57,17.70
2018,12,19,20,58,16.10
2018,12,19,20,59,8.10
2018,12,19,21,00,8.10
2018,12,19,21,01,9.60
2018,12,19,21,02,8.10
2018,12,19,21,03,9.60
2018,12,19,21,04,16.10
2018,12,19,21,05,14.50
2018,12,19,21,06,17.70
2018,12,19,21,07,4.80
2018,12,19,21,08,9.60
2018,12,19,21,09,11.30
2018,12,19,21,10,16.10
2018,12,19,21,11,17.70
2018,12,19,21,12,9.60
2018,12,19,21,13,8.10
2018,12,19,21,14,4.80
2018,12,19,21,15,8.10
2018,12,19,21,16,11.30
2018,12,19,21,17,11.30
2018,12,19,21,18,11.30
2018,12,19,21,19,8.10
2018,12,19,21,20,16.10
2018,12,19,21,21,4.80
2018,12,19,21,22,4.80
2018,12,19,21,23,3.20
2018,12,19,21,24,8.10
2018,12,19,21,25,11.30
2018,12,19,21,26,12.90
2018,12,19,21,27,9.60
2018,12,19,21,28,9.60
2018,12,19,21,29,8.10
2018,12,19,21,30,6.40
2018,12,19,21,31,8.10
2018,12,19,21,32,6.40
2018,12,19,21,33,6.40
2018,12,19,21,34,9.60
2018,12,19,21,35,8.10
2018,12,19,21,36,6.40
2018,12,19,21,37,6.40
2018,12,19,21,38,8.10
2018,12,19,21,39,11.30
2018,12,19,21,40,8.10
2018,12,19,21,41,6.40
2018,12,19,21,42,9.60
2018,12,19,21,43,11.30
2018,12,19,21,44,16.10
2018,12,19,21,45,16.10